,

(GMT )
Osoyoos

Weather History for CWYY - October, 2013

Change the Weather History Date:

Friday, October 11, 2013

  Actual Average Record
Temperature  
Mean Temperature 44 °F -  
Max Temperature 57 °F - - ()
Min Temperature 31 °F - - ()
Degree Days  
Heating Degree Days 21    
Moisture  
Dew Point 35 °F    
Average Humidity 72    
Maximum Humidity 99    
Minimum Humidity 31    
Precipitation  
Precipitation 0.00 in - - ()
Sea Level Pressure  
Sea Level Pressure 30.11 in    
Wind  
Wind Speed 1 mph ()    
Max Wind Speed 4 mph    
Max Gust Speed -    
T = Trace of Precipitation, MM = Missing Value Source: Averaged Metar Reports

Daily Weather History Graph

Daily Weather History Graph

Search for Another Location

Airport or City:

Trip Planner

Search our weather history database for the weather conditions in past years. The results will help you decide how hot, cold, wet, or windy it might be!

Date:

Astronomy

Oct. 11, 2013 Rise Set
Actual Time 7:12 AM PDT 6:15 PM PDT
Civil Twilight 6:40 AM PDT 6:46 PM PDT
Nautical Twilight 6:04 AM PDT 7:23 PM PDT
Astronomical Twilight 5:27 AM PDT 8:00 PM PDT
Moon 2:14 PM PDT (10/11) 11:51 PM PDT (10/11)
Length of Visible Light 12h 05m
Length of Day
11h 02m
Waxing Crescent, 48% of the Moon is Illuminated
Oct 11
Waxing Crescent
Oct 11
First Quarter
Oct 18
Full
Oct 26
Last Quarter
Nov 3
New

Hourly Weather History & Observations

Time (PDT) Temp. Dew Point Humidity Pressure Visibility Wind Dir Wind Speed Gust Speed Precip Events Conditions
12:00 AM 36.0 °F 33.8 °F 92% 30.06 in - East 1.2 mph - N/A   Unknown
1:00 AM 34.9 °F 33.6 °F 95% 30.07 in - ENE 1.2 mph - N/A   Unknown
2:00 AM 35.2 °F 34.0 °F 95% 30.08 in - ENE 1.2 mph - N/A   Unknown
3:00 AM 34.7 °F 33.3 °F 94% 30.11 in - ENE 2.3 mph - N/A   Unknown
4:00 AM 34.2 °F 31.3 °F 89% 30.12 in - Calm Calm - N/A   Unknown
5:00 AM 33 °F 31 °F 92% 30.14 in - ENE 1.2 mph - -  
5:00 AM 32.9 °F 31.5 °F 94% 30.14 in - ENE 1.2 mph - N/A   Unknown
6:00 AM 32.0 °F 31.1 °F 96% 30.16 in - ENE 1.2 mph - N/A   Unknown
7:00 AM 31.6 °F 31.3 °F 99% 30.17 in - ENE 1.2 mph - N/A   Unknown
8:00 AM 31.6 °F 31.5 °F 99% 30.18 in - Calm Calm - N/A   Unknown
9:00 AM 39.9 °F 36.0 °F 86% 30.19 in - NNE 2.3 mph - N/A   Unknown
10:00 AM 45.0 °F 36.9 °F 73% 30.19 in - Calm Calm - N/A   Unknown
11:00 AM 47 °F 34 °F 48% 30.17 in - West 2.3 mph - -  
11:00 AM 47.3 °F 33.6 °F 59% 30.17 in - West 2.3 mph - N/A   Unknown
12:00 PM 50.9 °F 33.4 °F 51% 30.15 in - SW 2.3 mph - N/A   Unknown
1:00 PM 53.6 °F 34.0 °F 47% 30.12 in - WNW 1.2 mph - N/A   Unknown
2:00 PM 54.9 °F 32.9 °F 43% 30.10 in - WNW 2.3 mph - N/A   Unknown
3:00 PM 56.8 °F 32.9 °F 40% 30.08 in - NNW 1.2 mph - N/A   Unknown
4:00 PM 56.8 °F 32.0 °F 39% 30.07 in - North 1.2 mph - N/A   Unknown
5:00 PM 56 °F 34 °F 31% 30.07 in - Calm Calm - -  
5:00 PM 56.5 °F 34.0 °F 43% 30.07 in - Calm Calm - N/A   Unknown
6:00 PM 48.9 °F 41.5 °F 76% 30.07 in - ENE 1.2 mph - N/A   Unknown
7:00 PM 46.9 °F 40.8 °F 79% 30.07 in - Calm Calm - N/A   Unknown
8:00 PM 49.3 °F 40.5 °F 72% 30.06 in - East 1.2 mph - N/A   Unknown
9:00 PM 48.9 °F 39.7 °F 71% 30.06 in - NNE 2.3 mph - N/A   Unknown
10:00 PM 49.1 °F 39.9 °F 71% 30.06 in - North 3.5 mph - N/A   Unknown
11:00 PM 50 °F 41 °F 62% 30.06 in - North 3.5 mph - -  
11:00 PM 50.0 °F 40.8 °F 71% 30.06 in - North 3.5 mph - N/A   Unknown